Regional Weather Roundup
Issued by NWS Sioux Falls, SD

Home | Current Version | Previous Version | Text Only | Print | Product List | Glossary Off
Versions: 1 2 3 4 5 6 7 8 9 10 11 12 13 14 15 16 17 18 19 20 21 22 23 24 25 26 27 28 29 30 31 32 33 34 35 36 37 38 39 40 41 42 43 44 45 46 47 48 49 50

452
ASUS43 KFSD 291410
RWRFSD

WEATHER ROUNDUP FOR SE SOUTH DAKOTA/SW MINNESOTA/NW IOWA
NATIONAL WEATHER SERVICE SIOUX FALLS SD
900 AM CDT THU SEP 29 2016

NOTE: "FAIR" INDICATES FEW OR NO CLOUDS BELOW 12,000 FEET WITH NO
SIGNIFICANT WEATHER AND OR OBSTRUCTIONS TO VISIBILITY.


SDZ038>040-050-052>070-291500-
SOUTHEAST SOUTH DAKOTA

CITY           SKY/WX    TMP DP  RH WIND       PRES   REMARKS
BROOKINGS      SUNNY     44  43  96 CALM      30.47S
CHAMBERLAIN    SUNNY     48  47  97 SE5       30.44S
HURON          SUNNY     47  45  93 SE5       30.46R
MADISON        FAIR      45  45 100 E3        30.47S
MITCHELL       MOSUNNY   43  43 100 CALM      30.48R
SIOUX FALLS    SUNNY     49  46  90 N3        30.47R
WINNER         FAIR      50  44  80 S7        30.43R
YANKTON        SUNNY     46  45  93 CALM      30.45S
$$

MNZ071-072-080-081-089-090-097-098-291500-
SOUTHWEST MINNESOTA

CITY           SKY/WX    TMP DP  RH WIND       PRES   REMARKS
FAIRMONT       FOG       48  48 100 E6        30.46R VSB 1/4
JACKSON        CLOUDY    48  46  93 VRB3      30.46R
LUVERNE        SUNNY     46  45  93 NE6       30.47S
MARSHALL       SUNNY     47  45  93 NW6       30.49R
MONTEVIDEO     SUNNY     52  52 100 CALM      30.50R
PIPESTONE      SUNNY     48  46  93 CALM      30.46S
REDWOOD FALLS  SUNNY     51  46  83 NE5       30.48R
TRACY          SUNNY     50  50  98 CALM      30.48R
WINDOM         SUNNY     50  48  93 N3        30.46S
WORTHINGTON    MOSUNNY   49  47  93 NE6       30.47R
$$

IAZ001>003-012>014-020>022-031-032-NEZ013-014-SDZ071-291500-
NORTHWEST IOWA

CITY           SKY/WX    TMP DP  RH WIND       PRES   REMARKS
CHEROKEE       SUNNY     47  47 100 NE6       30.45R
DENISON        SUNNY     48  48 100 N5        30.43R FOG
ESTHERVILLE    PTSUNNY   49  49 100 N6        30.45R
ORANGE CITY    SUNNY     48  46  93 CALM      30.46R
SHELDON        SUNNY     48  48 100 CALM      30.45R
SIOUX CITY     SUNNY     49  47  93 W3        30.46R
SPENCER        SUNNY     50  48  93 N6        30.45R
STORM LAKE     SUNNY     50  48  93 N8        30.44S
$$

ABBREVIATIONS USED IN REMARKS
   TC - TEMPERATURE IN CELSIUS
  WCI - WIND CHILL INDEX
   HX - HEAT INDEX
  VSB - VISIBILITY





USA.gov is the U.S. government's official web portal to all federal, state and local government web resources and services.